DLH554 UMMS-EDDB

Flight info

Callsign DLH554
Flight time N/A
Altitude 34000
Route OSMUS2F OSMUS L33 SOGBI/N0455F340 DCT VABER L29 SUWGI L735 GOVEN/N0402F280 T205 NUKRO
Aircraft B789/H-SDE1E2E3FGHIJ2J3J4J5M1RWXY/LB1D1

Departure

Time 2026-04-30 12:02
Airport Minsk National Airport (UMMS)

Arrival

Time N/A
Airport Berlin Brandenburg Airport (EDDB)
Time Latitude Longitude Altitude Speed Heading
2026-04-30 11:25 53.88847 28.03419 641 ft 0 kts 343°
2026-04-30 11:52 53.88846 28.03419 641 ft 1 kts 342°
2026-04-30 11:52 53.88827 28.03428 668 ft 4 kts 346°
2026-04-30 11:52 53.88805 28.03432 640 ft 3 kts 24°
2026-04-30 11:53 53.88791 28.03420 641 ft 3 kts 49°
2026-04-30 11:53 53.88783 28.03398 639 ft 0 kts 64°
2026-04-30 11:55 53.88783 28.03400 644 ft 2 kts 64°
2026-04-30 11:56 53.88796 28.03458 642 ft 9 kts 70°
2026-04-30 11:56 53.88839 28.03589 644 ft 16 kts 47°
2026-04-30 11:56 53.88923 28.03756 644 ft 17 kts 78°
2026-04-30 11:56 53.88892 28.03887 644 ft 13 kts 121°
2026-04-30 11:57 53.88884 28.04025 647 ft 12 kts 59°
2026-04-30 11:57 53.88950 28.04155 642 ft 18 kts 48°
2026-04-30 11:57 53.89050 28.04347 641 ft 25 kts 50°
2026-04-30 11:57 53.89180 28.04598 644 ft 26 kts 49°
2026-04-30 11:58 53.89179 28.04788 639 ft 12 kts 90°
2026-04-30 11:58 53.89159 28.04943 642 ft 15 kts 135°
2026-04-30 11:58 53.89058 28.05095 648 ft 24 kts 138°
2026-04-30 11:58 53.88902 28.05330 639 ft 36 kts 138°
2026-04-30 11:59 53.88684 28.05650 642 ft 47 kts 138°
2026-04-30 11:59 53.88420 28.06048 641 ft 51 kts 139°
2026-04-30 11:59 53.88158 28.06435 641 ft 49 kts 139°
2026-04-30 11:59 53.87955 28.06747 641 ft 23 kts 126°
2026-04-30 12:00 53.87952 28.06836 645 ft 0 kts 63°
2026-04-30 12:00 53.87954 28.06843 643 ft 2 kts 62°
2026-04-30 12:00 53.87975 28.06896 641 ft 9 kts 51°
2026-04-30 12:00 53.88043 28.06966 645 ft 15 kts
2026-04-30 12:01 53.88134 28.06869 647 ft 8 kts 320°
2026-04-30 12:01 53.88136 28.06866 646 ft 0 kts 320°
2026-04-30 12:01 53.88143 28.06856 641 ft 14 kts 319°
2026-04-30 12:02 53.88425 28.06437 637 ft 92 kts 319°
2026-04-30 12:02 53.89084 28.05464 639 ft 157 kts 319°
2026-04-30 12:02 53.90011 28.04134 1021 ft 182 kts 319°
2026-04-30 12:02 53.91003 28.02680 1825 ft 198 kts 318°
2026-04-30 12:03 53.92011 28.00975 2790 ft 205 kts 318°
2026-04-30 12:03 53.94222 27.97842 4916 ft 209 kts 320°
2026-04-30 12:03 53.95272 27.96042 5630 ft 227 kts 312°
2026-04-30 12:04 53.96437 27.93991 6070 ft 255 kts 316°
2026-04-30 12:04 53.97695 27.91847 7080 ft 256 kts 315°
2026-04-30 12:04 53.98951 27.89652 8011 ft 262 kts 315°
2026-04-30 12:04 54.00200 27.87444 8991 ft 265 kts 316°
2026-04-30 12:05 54.01507 27.85142 10031 ft 268 kts 317°
2026-04-30 12:05 54.02813 27.82854 10925 ft 271 kts 317°
2026-04-30 12:05 54.04135 27.80530 11829 ft 274 kts 318°
2026-04-30 12:05 54.05467 27.78184 12722 ft 278 kts 318°
2026-04-30 12:06 54.06801 27.75779 13619 ft 283 kts 313°
2026-04-30 12:06 54.07697 27.72724 14417 ft 296 kts 291°
2026-04-30 12:06 54.07904 27.69107 14831 ft 327 kts 267°
2026-04-30 12:06 54.07321 27.65180 14957 ft 358 kts 257°
2026-04-30 12:07 54.06512 27.61033 15356 ft 374 kts 255°
2026-04-30 12:07 54.05670 27.56834 16154 ft 377 kts 256°
2026-04-30 12:07 54.04866 27.52491 16320 ft 390 kts 257°
2026-04-30 12:07 54.04078 27.48162 16309 ft 385 kts 257°
2026-04-30 12:08 54.03259 27.43839 16308 ft 383 kts 256°
2026-04-30 12:08 54.02432 27.39535 16312 ft 382 kts 257°
2026-04-30 12:08 54.01615 27.35216 16310 ft 383 kts 257°
2026-04-30 12:08 54.00803 27.30912 16283 ft 383 kts 257°
2026-04-30 12:09 53.99984 27.26606 16282 ft 384 kts 257°
2026-04-30 12:09 53.99184 27.22425 16285 ft 384 kts 257°
2026-04-30 12:09 53.98356 27.18106 16286 ft 383 kts 257°
2026-04-30 12:09 53.97532 27.13799 16285 ft 384 kts 257°
2026-04-30 12:10 53.96704 27.09483 16287 ft 384 kts 256°
2026-04-30 12:10 53.95872 27.05165 16286 ft 384 kts 256°
2026-04-30 12:10 53.95040 27.00856 16288 ft 384 kts 256°
2026-04-30 12:10 53.94208 26.96556 16288 ft 384 kts 256°
2026-04-30 12:11 53.93372 26.92239 16287 ft 384 kts 256°
2026-04-30 12:11 53.92531 26.87913 16855 ft 385 kts 256°
2026-04-30 12:11 53.91688 26.83581 17633 ft 390 kts 257°
2026-04-30 12:11 53.90829 26.79170 18345 ft 396 kts 257°
2026-04-30 12:12 53.90173 26.74658 18959 ft 392 kts 271°
2026-04-30 12:12 53.90204 26.70082 19576 ft 385 kts 285°
2026-04-30 12:12 53.90888 26.65732 20182 ft 380 kts 297°
2026-04-30 12:12 53.91798 26.61487 20767 ft 385 kts 296°
2026-04-30 12:13 53.92717 26.57200 21391 ft 388 kts 297°
2026-04-30 12:13 53.93648 26.52885 21967 ft 392 kts 297°
2026-04-30 12:13 53.94585 26.48521 22559 ft 396 kts 297°
2026-04-30 12:13 53.95526 26.44107 23124 ft 399 kts 297°
2026-04-30 12:14 53.96476 26.39649 23697 ft 403 kts 297°
2026-04-30 12:14 53.97433 26.35156 24164 ft 406 kts 297°
2026-04-30 12:14 53.98395 26.30627 24633 ft 409 kts 297°
2026-04-30 12:14 53.99362 26.26062 25093 ft 412 kts 297°
2026-04-30 12:15 54.00334 26.21462 25530 ft 415 kts 297°
2026-04-30 12:15 54.01311 26.16832 25960 ft 417 kts 296°
2026-04-30 12:15 54.02293 26.12164 26395 ft 420 kts 296°
2026-04-30 12:15 54.03280 26.07462 26834 ft 423 kts 296°
2026-04-30 12:16 54.04271 26.02730 27234 ft 426 kts 296°
2026-04-30 12:16 54.05266 25.97972 27652 ft 429 kts 296°
2026-04-30 12:16 54.06269 25.93159 28048 ft 432 kts 296°
2026-04-30 12:16 54.07254 25.88425 28430 ft 434 kts 296°
2026-04-30 12:17 54.09282 25.78636 29200 ft 440 kts 296°
2026-04-30 12:17 54.10300 25.73705 29565 ft 443 kts 296°
2026-04-30 12:17 54.11323 25.68737 29931 ft 445 kts 296°
2026-04-30 12:18 54.12350 25.63739 30295 ft 448 kts 296°
2026-04-30 12:18 54.13381 25.58707 30590 ft 451 kts 296°
2026-04-30 12:18 54.14417 25.53638 30864 ft 453 kts 296°
2026-04-30 12:18 54.15458 25.48532 31160 ft 456 kts 296°
2026-04-30 12:19 54.16501 25.43402 31441 ft 459 kts 296°
2026-04-30 12:19 54.17196 25.39975 31628 ft 461 kts 296°
2026-04-30 12:19 54.18248 25.34779 31906 ft 463 kts 296°
2026-04-30 12:19 54.19302 25.29559 32183 ft 466 kts 296°
2026-04-30 12:20 54.20357 25.24300 32450 ft 469 kts 295°
2026-04-30 12:20 54.21095 25.18797 32703 ft 482 kts 284°
2026-04-30 12:20 54.21284 25.13009 32956 ft 493 kts 276°
2026-04-30 12:20 54.21270 25.07133 33184 ft 496 kts 276°
2026-04-30 12:21 54.21243 25.01305 33445 ft 499 kts 276°
2026-04-30 12:21 54.21207 24.95292 33698 ft 501 kts 276°
2026-04-30 12:21 54.21177 24.89405 34005 ft 502 kts 276°
2026-04-30 12:21 54.21146 24.83456 34353 ft 503 kts 276°
2026-04-30 12:22 54.21066 24.71397 34328 ft 505 kts 276°
2026-04-30 12:22 54.20976 24.59433 34333 ft 503 kts 276°
2026-04-30 12:23 54.20876 24.47473 34339 ft 504 kts 276°
2026-04-30 12:23 54.20762 24.35494 34341 ft 505 kts 276°
2026-04-30 12:24 54.20637 24.23487 34343 ft 507 kts 276°
2026-04-30 12:24 54.20498 24.11462 34343 ft 506 kts 276°
2026-04-30 12:25 54.20350 23.99410 34347 ft 508 kts 276°
2026-04-30 12:25 54.20186 23.87368 34346 ft 507 kts 276°
2026-04-30 12:26 54.20013 23.75315 34356 ft 508 kts 276°
2026-04-30 12:26 54.19826 23.63246 34358 ft 509 kts 276°
2026-04-30 12:27 54.19628 23.51155 34360 ft 510 kts 276°
2026-04-30 12:27 54.18842 23.39021 34382 ft 526 kts 259°
2026-04-30 12:28 54.16167 23.27240 34378 ft 535 kts 253°
2026-04-30 12:28 54.13280 23.15519 34373 ft 536 kts 253°
2026-04-30 12:29 54.10509 23.04265 34375 ft 537 kts 253°
2026-04-30 12:29 54.07597 22.92542 34399 ft 538 kts 252°
2026-04-30 12:30 54.05085 22.80638 34403 ft 535 kts 257°
2026-04-30 12:30 54.02607 22.68688 34393 ft 536 kts 257°
2026-04-30 12:31 54.00168 22.56716 34399 ft 536 kts 257°
2026-04-30 12:31 53.97683 22.44777 34400 ft 536 kts 257°
2026-04-30 12:32 53.95206 22.32831 34396 ft 538 kts 257°
2026-04-30 12:32 53.92690 22.20836 34401 ft 540 kts 257°
2026-04-30 12:33 53.90161 22.08816 34398 ft 542 kts 257°
2026-04-30 12:33 53.87606 21.96765 34398 ft 544 kts 256°
2026-04-30 12:34 53.85039 21.84718 34406 ft 543 kts 256°
2026-04-30 12:34 53.82479 21.72776 34403 ft 543 kts 256°
2026-04-30 12:35 53.79886 21.60756 34407 ft 545 kts 256°
2026-04-30 12:35 53.77272 21.48703 34402 ft 547 kts 256°
2026-04-30 12:36 53.74636 21.36623 34405 ft 548 kts 256°
2026-04-30 12:36 53.71967 21.24466 34397 ft 548 kts 256°
2026-04-30 12:37 53.69327 21.12507 34396 ft 547 kts 256°
2026-04-30 12:37 53.66640 21.00408 34403 ft 547 kts 256°
2026-04-30 12:38 53.63951 20.88363 34396 ft 550 kts 256°
2026-04-30 12:38 53.61258 20.76377 34394 ft 552 kts 256°
2026-04-30 12:39 53.58527 20.64291 34399 ft 552 kts 256°
2026-04-30 12:39 53.55783 20.52215 34407 ft 552 kts 256°
2026-04-30 12:40 53.53034 20.40173 34408 ft 551 kts 255°
2026-04-30 12:40 53.50277 20.28162 34404 ft 551 kts 255°
2026-04-30 12:41 53.47508 20.16165 34401 ft 552 kts 255°
2026-04-30 12:41 53.44717 20.04144 34407 ft 553 kts 255°
2026-04-30 12:42 53.41910 19.92122 34409 ft 554 kts 255°
2026-04-30 12:42 53.39089 19.80110 34412 ft 554 kts 255°
2026-04-30 12:43 53.36259 19.68123 34412 ft 552 kts 255°
2026-04-30 12:43 53.33428 19.56197 34414 ft 551 kts 255°
2026-04-30 12:44 53.30589 19.44306 34417 ft 551 kts 254°
2026-04-30 12:44 53.27732 19.32402 34423 ft 552 kts 254°
2026-04-30 12:45 53.24878 19.20579 34414 ft 553 kts 254°
2026-04-30 12:45 53.21992 19.08685 34415 ft 552 kts 254°
2026-04-30 12:46 53.19100 18.96833 34416 ft 551 kts 254°
2026-04-30 12:46 53.16201 18.85017 34413 ft 550 kts 253°
2026-04-30 12:47 53.13296 18.73237 34415 ft 549 kts 253°
2026-04-30 12:47 53.10377 18.61462 34416 ft 551 kts 253°
2026-04-30 12:48 53.07441 18.49687 34412 ft 552 kts 253°
2026-04-30 12:48 53.04484 18.37888 34404 ft 552 kts 253°
2026-04-30 12:49 53.01522 18.26135 34405 ft 550 kts 253°
2026-04-30 12:49 52.98562 18.14443 34398 ft 549 kts 252°
2026-04-30 12:50 52.97087 18.08654 34392 ft 538 kts 252°
2026-04-30 12:50 52.95647 18.03026 34388 ft 523 kts 253°
2026-04-30 12:50 52.94246 17.97543 34392 ft 509 kts 253°
2026-04-30 12:50 52.92871 17.92149 33801 ft 509 kts 253°
2026-04-30 12:51 52.91495 17.86769 33409 ft 504 kts 252°
2026-04-30 12:51 52.90195 17.81741 33002 ft 501 kts 252°
2026-04-30 12:51 52.88828 17.76457 32589 ft 497 kts 252°
2026-04-30 12:51 52.87494 17.71287 32167 ft 493 kts 252°
2026-04-30 12:52 52.86159 17.66124 31773 ft 490 kts 252°
2026-04-30 12:52 52.84804 17.60913 31359 ft 486 kts 252°
2026-04-30 12:52 52.83470 17.55795 30953 ft 483 kts 252°
2026-04-30 12:52 52.82145 17.50709 30559 ft 479 kts 252°
2026-04-30 12:53 52.80830 17.45672 30104 ft 476 kts 252°
2026-04-30 12:53 52.79521 17.40677 29676 ft 472 kts 252°
2026-04-30 12:53 52.78221 17.35728 29244 ft 467 kts 252°
2026-04-30 12:53 52.76932 17.30829 28815 ft 463 kts 252°
2026-04-30 12:54 52.75654 17.25977 28397 ft 459 kts 252°
2026-04-30 12:54 52.74380 17.21156 27995 ft 455 kts 252°
2026-04-30 12:54 52.73118 17.16392 27570 ft 452 kts 251°
2026-04-30 12:54 52.71865 17.11667 27173 ft 448 kts 251°
2026-04-30 12:55 52.70620 17.06985 26770 ft 444 kts 251°
2026-04-30 12:55 52.69383 17.02341 26385 ft 440 kts 251°
2026-04-30 12:55 52.68157 16.97750 25997 ft 436 kts 251°
2026-04-30 12:55 52.66936 16.93188 25602 ft 433 kts 251°
2026-04-30 12:56 52.65726 16.88672 25209 ft 429 kts 251°
2026-04-30 12:56 52.64525 16.84200 24836 ft 425 kts 251°
2026-04-30 12:56 52.63329 16.79758 24458 ft 422 kts 251°
2026-04-30 12:56 52.62145 16.75366 24084 ft 419 kts 251°
2026-04-30 12:57 52.60967 16.71006 23645 ft 415 kts 251°
2026-04-30 12:57 52.59800 16.66694 23225 ft 411 kts 250°
2026-04-30 12:57 52.58640 16.62415 22768 ft 408 kts 250°
2026-04-30 12:57 52.57486 16.58168 22311 ft 405 kts 250°
2026-04-30 12:58 52.56341 16.53959 21881 ft 401 kts 250°
2026-04-30 12:58 52.55204 16.49790 21462 ft 398 kts 250°
2026-04-30 12:58 52.54088 16.45706 21039 ft 395 kts 250°
2026-04-30 12:58 52.52967 16.41607 20621 ft 392 kts 250°
2026-04-30 12:59 52.51852 16.37542 20199 ft 389 kts 250°
2026-04-30 12:59 52.50745 16.33510 19782 ft 386 kts 249°
2026-04-30 12:59 52.49645 16.29510 19370 ft 383 kts 249°
2026-04-30 12:59 52.48551 16.25540 18957 ft 381 kts 249°
2026-04-30 13:00 52.47463 16.21600 18515 ft 378 kts 249°
2026-04-30 13:00 52.46383 16.17693 18052 ft 374 kts 249°
2026-04-30 13:00 52.45310 16.13819 17597 ft 371 kts 249°
2026-04-30 13:00 52.44246 16.09984 17153 ft 368 kts 249°
2026-04-30 13:01 52.43190 16.06183 16727 ft 365 kts 248°
2026-04-30 13:01 52.42140 16.02410 16255 ft 362 kts 248°
2026-04-30 13:01 52.41098 15.98673 15831 ft 359 kts 248°
2026-04-30 13:01 52.40063 15.94965 15400 ft 357 kts 248°
2026-04-30 13:02 52.39033 15.91285 14967 ft 354 kts 248°
2026-04-30 13:02 52.38012 15.87638 14551 ft 351 kts 248°
2026-04-30 13:02 52.37000 15.84029 14128 ft 348 kts 248°
2026-04-30 13:02 52.35992 15.80442 13674 ft 345 kts 248°
2026-04-30 13:03 52.34995 15.76901 13233 ft 341 kts 248°
2026-04-30 13:03 52.34008 15.73398 12790 ft 338 kts 248°
2026-04-30 13:03 52.33023 15.69910 12329 ft 336 kts 248°
2026-04-30 13:03 52.32049 15.66463 11893 ft 333 kts 248°
2026-04-30 13:04 52.31083 15.63050 11460 ft 330 kts 248°
2026-04-30 13:04 52.30129 15.59687 11242 ft 319 kts 248°
2026-04-30 13:04 52.29192 15.56390 10897 ft 314 kts 248°
2026-04-30 13:04 52.28281 15.53185 10628 ft 306 kts 248°
2026-04-30 13:05 52.27394 15.50066 10398 ft 298 kts 248°
2026-04-30 13:05 52.26521 15.46999 9923 ft 298 kts 248°
2026-04-30 13:05 52.25944 15.44978 9688 ft 295 kts 248°
2026-04-30 13:06 52.24223 15.38957 8893 ft 290 kts 248°
2026-04-30 13:06 52.23374 15.35992 8503 ft 288 kts 247°
2026-04-30 13:06 52.22529 15.33044 8134 ft 285 kts 247°
2026-04-30 13:06 52.21698 15.30153 8002 ft 277 kts 247°
2026-04-30 13:07 52.20875 15.27289 8004 ft 281 kts 247°
2026-04-30 13:07 52.20041 15.24384 8008 ft 284 kts 247°
2026-04-30 13:07 52.19203 15.21476 8009 ft 284 kts 247°
2026-04-30 13:07 52.18360 15.18559 8013 ft 284 kts 247°
2026-04-30 13:08 52.17516 15.15637 8010 ft 285 kts 247°
2026-04-30 13:08 52.16673 15.12722 8009 ft 284 kts 247°
2026-04-30 13:08 52.15829 15.09807 8006 ft 285 kts 247°
2026-04-30 13:08 52.14989 15.06909 8005 ft 285 kts 247°
2026-04-30 13:09 52.14137 15.03976 8007 ft 285 kts 247°
2026-04-30 13:09 52.13301 15.01100 8011 ft 285 kts 247°
2026-04-30 13:09 52.12453 14.98184 8006 ft 285 kts 246°
2026-04-30 13:09 52.11593 14.95233 8012 ft 285 kts 246°
2026-04-30 13:10 52.10756 14.92362 8012 ft 285 kts 246°
2026-04-30 13:10 52.09906 14.89453 8010 ft 285 kts 246°
2026-04-30 13:10 52.09056 14.86544 8009 ft 285 kts 246°
2026-04-30 13:10 52.08205 14.83639 8009 ft 285 kts 246°
2026-04-30 13:11 52.07350 14.80723 8012 ft 286 kts 246°
2026-04-30 13:11 52.06497 14.77813 8023 ft 286 kts 246°
2026-04-30 13:11 52.05813 14.74811 7992 ft 281 kts 268°
2026-04-30 13:11 52.05820 14.71663 8012 ft 280 kts 271°
2026-04-30 13:12 52.05662 14.68494 8014 ft 282 kts 267°
2026-04-30 13:12 52.05492 14.65328 8018 ft 281 kts 270°
2026-04-30 13:12 52.05424 14.62160 8016 ft 280 kts 275°
2026-04-30 13:13 52.05815 14.55893 8008 ft 278 kts 281°
2026-04-30 13:13 52.06063 14.52778 8007 ft 277 kts 281°
2026-04-30 13:13 52.06533 14.46790 8015 ft 248 kts 281°
2026-04-30 13:14 52.06732 14.44089 8022 ft 239 kts 281°
2026-04-30 13:14 52.06939 14.41308 8018 ft 254 kts 281°
2026-04-30 13:14 52.07370 14.35599 8021 ft 256 kts 281°
2026-04-30 13:15 52.07588 14.32726 8013 ft 256 kts 281°
2026-04-30 13:15 52.08027 14.26965 8019 ft 257 kts 281°
2026-04-30 13:15 52.08250 14.24052 8019 ft 257 kts 281°
2026-04-30 13:16 52.08471 14.21163 8015 ft 256 kts 281°
2026-04-30 13:16 52.08688 14.18326 8015 ft 256 kts 281°
2026-04-30 13:16 52.08910 14.15441 8015 ft 257 kts 281°
2026-04-30 13:17 52.09352 14.09682 8014 ft 256 kts 281°
2026-04-30 13:17 52.09573 14.06801 8012 ft 257 kts 281°
2026-04-30 13:17 52.10025 14.00975 8051 ft 279 kts 281°
2026-04-30 13:18 52.10273 13.97872 8090 ft 266 kts 281°
2026-04-30 13:18 52.10723 13.92021 7840 ft 260 kts 281°
2026-04-30 13:18 52.10985 13.89111 7680 ft 260 kts 282°
2026-04-30 13:19 52.11264 13.86202 7501 ft 261 kts 282°
2026-04-30 13:19 52.11566 13.83291 7332 ft 260 kts 283°
2026-04-30 13:19 52.11893 13.80424 7260 ft 255 kts 285°
2026-04-30 13:19 52.12248 13.77602 7005 ft 253 kts 286°
2026-04-30 13:20 52.12630 13.74818 6686 ft 253 kts 286°
2026-04-30 13:20 52.13035 13.72043 6496 ft 250 kts 287°
2026-04-30 13:20 52.13463 13.69303 6254 ft 249 kts 288°
2026-04-30 13:20 52.13863 13.66583 6183 ft 246 kts 285°
2026-04-30 13:21 52.14207 13.63867 6074 ft 243 kts 283°
2026-04-30 13:21 52.14556 13.61169 5870 ft 243 kts 285°
2026-04-30 13:21 52.14940 13.58511 5727 ft 240 kts 286°
2026-04-30 13:22 52.15767 13.53350 5548 ft 230 kts 287°
2026-04-30 13:22 52.16183 13.50847 5430 ft 229 kts 288°
2026-04-30 13:22 52.16838 13.45705 5098 ft 235 kts 282°
2026-04-30 13:24 52.17162 13.42584 5005 ft 217 kts 277°
2026-04-30 13:25 52.17527 13.37459 4600 ft 233 kts 272°
2026-04-30 13:25 52.17337 13.32241 4568 ft 227 kts 266°
2026-04-30 13:26 52.16850 13.24472 4138 ft 234 kts 264°
2026-04-30 13:26 52.17118 13.19514 3930 ft 214 kts 294°
2026-04-30 13:27 52.18930 13.15919 3661 ft 204 kts 324°